Time,TemperatureF,DewpointF,PressureIn,WindDirection,WindDirectionDegrees,WindSpeedMPH,WindSpeedGustMPH,Humidity,HourlyPrecipIn,Conditions,Clouds,dailyrainin,SoftwareType,DateUTC
2013-09-14 00:00:00,53.5,42.8,30.04,East,101,0.0,0.0,67,0.00,,---,0.00,VWS V14.01,2013-09-14 05:00:00,
2013-09-14 00:01:00,52.6,43.5,30.04,East,101,0.0,0.0,71,0.00,,---,0.00,VWS V14.01,2013-09-14 05:01:00,
2013-09-14 00:06:00,52.6,43.5,30.04,East,101,0.0,0.0,71,0.00,,---,0.00,VWS V14.01,2013-09-14 05:06:00,
2013-09-14 00:11:00,52.5,43.4,30.04,East,101,0.0,0.0,71,0.00,,---,0.00,VWS V14.01,2013-09-14 05:11:00,
2013-09-14 00:16:00,52.5,43.8,30.03,East,101,0.0,0.0,72,0.00,,---,0.00,VWS V14.01,2013-09-14 05:16:00,
2013-09-14 00:21:00,52.5,43.8,30.03,East,101,0.0,0.0,72,0.00,,---,0.00,VWS V14.01,2013-09-14 05:21:00,
2013-09-14 00:26:00,52.5,43.8,30.03,East,101,0.0,0.0,72,0.00,,---,0.00,VWS V14.01,2013-09-14 05:26:00,
2013-09-14 00:30:00,52.9,43.0,30.04,East,101,0.0,0.0,69,0.00,,---,0.00,VWS V14.01,2013-09-14 05:30:00,
2013-09-14 00:31:00,52.3,43.5,30.03,East,101,0.0,0.0,72,0.00,,---,0.00,VWS V14.01,2013-09-14 05:31:00,
2013-09-14 00:36:00,52.3,43.9,30.03,East,101,0.0,0.0,73,0.00,,---,0.00,VWS V14.01,2013-09-14 05:36:00,
2013-09-14 00:41:00,52.6,44.2,30.03,East,101,0.0,0.0,73,0.00,,---,0.00,VWS V14.01,2013-09-14 05:41:00,
2013-09-14 00:46:00,52.9,44.5,30.03,East,101,0.0,0.0,73,0.00,,---,0.00,VWS V14.01,2013-09-14 05:46:00,
2013-09-14 00:51:00,53.5,45.1,30.03,East,101,0.0,0.0,73,0.00,,---,0.00,VWS V14.01,2013-09-14 05:51:00,
2013-09-14 00:56:00,54.1,45.7,30.03,East,101,0.0,0.0,73,0.00,,---,0.00,VWS V14.01,2013-09-14 05:56:00,
2013-09-14 01:00:00,52.6,43.5,30.04,East,101,0.0,0.0,71,0.00,,---,0.00,VWS V14.01,2013-09-14 06:00:00,
2013-09-14 01:01:00,54.8,46.0,30.03,East,101,0.0,0.0,72,0.00,,---,0.00,VWS V14.01,2013-09-14 06:01:00,
2013-09-14 01:06:00,55.1,46.2,30.03,East,101,0.0,0.0,72,0.00,,---,0.00,VWS V14.01,2013-09-14 06:06:00,
2013-09-14 01:11:00,55.6,46.7,30.03,East,101,0.0,0.0,72,0.00,,---,0.00,VWS V14.01,2013-09-14 06:11:00,
2013-09-14 01:16:00,55.9,46.7,30.04,East,101,0.0,0.0,71,0.00,,---,0.00,VWS V14.01,2013-09-14 06:16:00,
2013-09-14 01:21:00,56.3,47.0,30.04,East,101,0.0,0.0,71,0.00,,---,0.00,VWS V14.01,2013-09-14 06:21:00,
2013-09-14 01:26:00,56.5,47.2,30.04,East,101,0.0,0.0,71,0.00,,---,0.00,VWS V14.01,2013-09-14 06:26:00,
2013-09-14 01:30:00,52.3,43.5,30.03,East,101,0.0,0.0,72,0.00,,---,0.00,VWS V14.01,2013-09-14 06:30:00,
2013-09-14 01:31:00,56.7,47.0,30.04,ESE,105,0.0,0.0,70,0.00,,---,0.00,VWS V14.01,2013-09-14 06:31:00,
2013-09-14 01:36:00,57.0,47.3,30.04,ESE,105,0.0,0.0,70,0.00,,---,0.00,VWS V14.01,2013-09-14 06:36:00,
2013-09-14 01:41:00,57.0,46.9,30.04,ESE,105,0.0,0.0,69,0.00,,---,0.00,VWS V14.01,2013-09-14 06:41:00,
2013-09-14 01:46:00,57.0,46.9,30.05,ESE,105,0.0,0.0,69,0.00,,---,0.00,VWS V14.01,2013-09-14 06:46:00,
2013-09-14 01:51:00,56.9,46.8,30.05,ESE,105,0.0,0.0,69,0.00,,---,0.00,VWS V14.01,2013-09-14 06:51:00,
2013-09-14 01:56:00,56.6,46.6,30.05,ESE,105,0.0,0.0,69,0.00,,---,0.00,VWS V14.01,2013-09-14 06:56:00,
2013-09-14 02:00:00,54.7,45.9,30.03,East,101,0.0,0.0,72,0.00,,---,0.00,VWS V14.01,2013-09-14 07:00:00,
2013-09-14 02:01:00,56.6,46.6,30.05,ESE,105,0.0,0.0,69,0.00,,---,0.00,VWS V14.01,2013-09-14 07:01:00,
2013-09-14 02:06:00,56.7,46.7,30.05,ESE,105,0.0,0.0,69,0.00,,---,0.00,VWS V14.01,2013-09-14 07:06:00,
2013-09-14 02:11:00,56.9,46.5,30.05,SE,137,0.0,0.0,68,0.00,,---,0.00,VWS V14.01,2013-09-14 07:11:00,
2013-09-14 02:16:00,57.0,46.6,30.05,SE,130,0.0,1.0,68,0.00,,---,0.00,VWS V14.01,2013-09-14 07:16:00,
2013-09-14 02:21:00,57.0,46.6,30.05,SE,130,0.0,1.0,68,0.00,,---,0.00,VWS V14.01,2013-09-14 07:21:00,
2013-09-14 02:26:00,56.9,46.5,30.05,SE,130,0.0,1.0,68,0.00,,---,0.00,VWS V14.01,2013-09-14 07:26:00,
2013-09-14 02:30:00,56.7,47.0,30.04,ESE,105,0.0,0.0,70,0.00,,---,0.00,VWS V14.01,2013-09-14 07:30:00,
2013-09-14 02:31:00,56.7,46.3,30.05,SE,134,0.0,0.0,68,0.00,,---,0.00,VWS V14.01,2013-09-14 07:31:00,
2013-09-14 02:36:00,56.7,46.3,30.05,SE,124,0.0,2.0,68,0.00,,---,0.00,VWS V14.01,2013-09-14 07:36:00,
2013-09-14 02:41:00,56.7,46.3,30.05,SE,124,0.0,2.0,68,0.00,,---,0.00,VWS V14.01,2013-09-14 07:41:00,
2013-09-14 02:46:00,56.6,46.2,30.05,SE,124,0.0,2.0,68,0.00,,---,0.00,VWS V14.01,2013-09-14 07:46:00,
2013-09-14 02:51:00,56.5,46.1,30.05,SE,125,1.0,2.0,68,0.00,,---,0.00,VWS V14.01,2013-09-14 07:51:00,
2013-09-14 02:56:00,56.5,46.1,30.05,SE,124,0.0,2.0,68,0.00,,---,0.00,VWS V14.01,2013-09-14 07:56:00,
2013-09-14 03:00:00,56.6,46.6,30.05,ESE,105,0.0,0.0,69,0.00,,---,0.00,VWS V14.01,2013-09-14 08:00:00,
2013-09-14 03:01:00,56.5,46.1,30.04,SE,124,1.0,1.0,68,0.00,,---,0.00,VWS V14.01,2013-09-14 08:01:00,
2013-09-14 03:06:00,56.5,46.1,30.04,SE,124,0.0,1.0,68,0.00,,---,0.00,VWS V14.01,2013-09-14 08:06:00,
2013-09-14 03:11:00,56.3,45.9,30.04,SE,124,0.0,1.0,68,0.00,,---,0.00,VWS V14.01,2013-09-14 08:11:00,
2013-09-14 03:16:00,56.3,45.9,30.04,SE,124,0.0,1.0,68,0.00,,---,0.00,VWS V14.01,2013-09-14 08:16:00,
2013-09-14 03:21:00,56.2,45.8,30.04,SE,124,0.0,1.0,68,0.00,,---,0.00,VWS V14.01,2013-09-14 08:21:00,
2013-09-14 03:26:00,56.0,45.6,30.04,SE,124,0.0,1.0,68,0.00,,---,0.00,VWS V14.01,2013-09-14 08:26:00,
2013-09-14 03:30:00,56.7,46.3,30.05,SE,134,0.0,1.0,68,0.00,,---,0.00,VWS V14.01,2013-09-14 08:30:00,
2013-09-14 03:31:00,55.7,45.3,30.03,SE,124,0.0,0.0,68,0.00,,---,0.00,VWS V14.01,2013-09-14 08:31:00,
2013-09-14 03:36:00,55.6,45.2,30.03,SE,124,0.0,0.0,68,0.00,,---,0.00,VWS V14.01,2013-09-14 08:36:00,
2013-09-14 03:41:00,55.4,45.4,30.03,SE,124,0.0,0.0,69,0.00,,---,0.00,VWS V14.01,2013-09-14 08:41:00,
2013-09-14 03:46:00,55.4,45.4,30.04,SE,124,0.0,0.0,69,0.00,,---,0.00,VWS V14.01,2013-09-14 08:46:00,
2013-09-14 03:51:00,55.3,45.3,30.04,SE,124,0.0,0.0,69,0.00,,---,0.00,VWS V14.01,2013-09-14 08:51:00,
2013-09-14 03:56:00,55.0,45.0,30.04,SE,124,0.0,0.0,69,0.00,,---,0.00,VWS V14.01,2013-09-14 08:56:00,
2013-09-14 04:00:00,56.5,46.1,30.04,SE,124,0.0,2.0,68,0.00,,---,0.00,VWS V14.01,2013-09-14 09:00:00,
2013-09-14 04:01:00,54.5,44.5,30.05,SE,124,0.0,0.0,69,0.00,,---,0.00,VWS V14.01,2013-09-14 09:01:00,
2013-09-14 04:06:00,54.1,44.2,30.05,SE,124,0.0,0.0,69,0.00,,---,0.00,VWS V14.01,2013-09-14 09:06:00,
2013-09-14 04:11:00,53.8,43.9,30.05,SE,124,0.0,0.0,69,0.00,,---,0.00,VWS V14.01,2013-09-14 09:11:00,
2013-09-14 04:15:00,53.5,44.0,30.05,SE,124,0.0,0.0,70,0.00,,---,0.00,VWS V14.01,2013-09-14 09:15:00,
2013-09-14 04:20:00,53.5,44.0,30.05,SE,124,0.0,0.0,70,0.00,,---,0.00,VWS V14.01,2013-09-14 09:20:00,
2013-09-14 04:25:00,53.6,44.4,30.05,SE,124,0.0,0.0,71,0.00,,---,0.00,VWS V14.01,2013-09-14 09:25:00,
2013-09-14 04:30:00,53.6,44.4,30.05,SE,124,0.0,0.0,71,0.00,,---,0.00,VWS V14.01,2013-09-14 09:30:00,
2013-09-14 04:35:00,53.6,44.4,30.05,SE,124,0.0,0.0,71,0.00,,---,0.00,VWS V14.01,2013-09-14 09:35:00,
2013-09-14 04:40:00,53.5,44.3,30.05,SE,124,0.0,0.0,71,0.00,,---,0.00,VWS V14.01,2013-09-14 09:40:00,
2013-09-14 04:45:00,53.5,44.3,30.05,SE,124,0.0,0.0,71,0.00,,---,0.00,VWS V14.01,2013-09-14 09:45:00,
2013-09-14 04:50:00,53.6,44.4,30.05,SE,124,0.0,0.0,71,0.00,,---,0.00,VWS V14.01,2013-09-14 09:50:00,
2013-09-14 04:55:00,53.5,44.7,30.05,SE,124,0.0,0.0,72,0.00,,---,0.00,VWS V14.01,2013-09-14 09:55:00,
2013-09-14 05:00:00,53.5,44.7,30.05,SE,124,0.0,0.0,72,0.00,,---,0.00,VWS V14.01,2013-09-14 10:00:00,
2013-09-14 05:05:00,53.2,44.4,30.05,SE,124,0.0,0.0,72,0.00,,---,0.00,VWS V14.01,2013-09-14 10:05:00,
2013-09-14 05:10:00,53.1,44.3,30.05,SE,124,0.0,0.0,72,0.00,,---,0.00,VWS V14.01,2013-09-14 10:10:00,
2013-09-14 05:15:00,52.9,44.1,30.05,SE,124,0.0,0.0,72,0.00,,---,0.00,VWS V14.01,2013-09-14 10:15:00,
2013-09-14 05:20:00,52.8,44.4,30.05,SE,124,0.0,0.0,73,0.00,,---,0.00,VWS V14.01,2013-09-14 10:20:00,
2013-09-14 05:25:00,52.8,44.4,30.05,SE,124,0.0,0.0,73,0.00,,---,0.00,VWS V14.01,2013-09-14 10:25:00,
2013-09-14 05:30:00,52.8,44.4,30.05,SE,124,0.0,0.0,73,0.00,,---,0.00,VWS V14.01,2013-09-14 10:30:00,
2013-09-14 05:35:00,52.6,44.2,30.05,SE,124,0.0,0.0,73,0.00,,---,0.00,VWS V14.01,2013-09-14 10:35:00,
2013-09-14 05:40:00,52.6,44.2,30.05,SE,124,0.0,0.0,73,0.00,,---,0.00,VWS V14.01,2013-09-14 10:40:00,
2013-09-14 05:45:00,52.6,44.2,30.05,SE,124,0.0,0.0,73,0.00,,---,0.00,VWS V14.01,2013-09-14 10:45:00,
2013-09-14 05:50:00,52.6,44.6,30.05,SE,124,0.0,0.0,74,0.00,,---,0.00,VWS V14.01,2013-09-14 10:50:00,
2013-09-14 05:55:00,52.6,44.6,30.05,SE,130,0.0,0.0,74,0.00,,---,0.00,VWS V14.01,2013-09-14 10:55:00,
2013-09-14 06:00:00,52.8,44.8,30.05,SE,130,0.0,0.0,74,0.00,,---,0.00,VWS V14.01,2013-09-14 11:00:00,
2013-09-14 06:05:00,52.9,44.8,30.05,SE,130,0.0,0.0,74,0.00,,---,0.00,VWS V14.01,2013-09-14 11:05:00,
2013-09-14 06:10:00,53.1,45.0,30.05,SE,130,0.0,0.0,74,0.00,,---,0.00,VWS V14.01,2013-09-14 11:10:00,
2013-09-14 06:15:00,53.1,45.0,30.05,SE,130,0.0,0.0,74,0.00,,---,0.00,VWS V14.01,2013-09-14 11:15:00,
2013-09-14 06:20:00,53.1,45.0,30.05,SE,133,0.0,0.0,74,0.00,,---,0.00,VWS V14.01,2013-09-14 11:20:00,
2013-09-14 06:25:00,53.2,45.1,30.05,SE,133,0.0,0.0,74,0.00,,---,0.00,VWS V14.01,2013-09-14 11:25:00,
2013-09-14 06:30:00,53.2,45.5,30.05,SE,133,0.0,0.0,75,0.00,,---,0.00,VWS V14.01,2013-09-14 11:30:00,
2013-09-14 06:35:00,53.2,45.5,30.05,SE,133,0.0,0.0,75,0.00,,---,0.00,VWS V14.01,2013-09-14 11:35:00,
2013-09-14 06:40:00,53.3,45.6,30.05,SE,133,0.0,0.0,75,0.00,,---,0.00,VWS V14.01,2013-09-14 11:40:00,
2013-09-14 06:45:00,53.2,45.5,30.06,SE,133,0.0,0.0,75,0.00,,---,0.00,VWS V14.01,2013-09-14 11:45:00,
2013-09-14 06:50:00,53.1,45.4,30.06,SE,133,0.0,0.0,75,0.00,,---,0.00,VWS V14.01,2013-09-14 11:50:00,
2013-09-14 06:55:00,53.1,45.4,30.06,SE,133,0.0,0.0,75,0.00,,---,0.00,VWS V14.01,2013-09-14 11:55:00,
2013-09-14 07:00:00,52.9,45.2,30.06,SE,133,0.0,0.0,75,0.00,,---,0.00,VWS V14.01,2013-09-14 12:00:00,
2013-09-14 07:05:00,53.1,45.4,30.06,SE,133,0.0,0.0,75,0.00,,---,0.00,VWS V14.01,2013-09-14 12:05:00,
2013-09-14 07:10:00,53.2,45.5,30.06,SE,130,0.0,0.0,75,0.00,,---,0.00,VWS V14.01,2013-09-14 12:10:00,
2013-09-14 07:15:00,53.3,45.6,30.07,SE,130,0.0,0.0,75,0.00,,---,0.00,VWS V14.01,2013-09-14 12:15:00,
2013-09-14 07:20:00,53.5,45.8,30.07,SE,130,0.0,0.0,75,0.00,,---,0.00,VWS V14.01,2013-09-14 12:20:00,
2013-09-14 07:25:00,53.5,45.8,30.07,SE,131,0.0,0.0,75,0.00,,---,0.00,VWS V14.01,2013-09-14 12:25:00,
2013-09-14 07:30:00,53.8,46.1,30.07,SSE,165,1.0,3.0,75,0.00,,---,0.00,VWS V14.01,2013-09-14 12:30:00,
2013-09-14 07:35:00,54.1,46.4,30.07,SSE,163,0.0,1.0,75,0.00,,---,0.00,VWS V14.01,2013-09-14 12:35:00,
2013-09-14 07:40:00,54.7,46.9,30.07,ESE,123,0.0,2.0,75,0.00,,---,0.00,VWS V14.01,2013-09-14 12:40:00,
2013-09-14 07:45:00,55.1,47.3,30.07,ESE,119,0.0,3.0,75,0.00,,---,0.00,VWS V14.01,2013-09-14 12:45:00,
2013-09-14 07:50:00,55.6,47.8,30.07,SE,128,0.0,3.0,75,0.00,,---,0.00,VWS V14.01,2013-09-14 12:50:00,
2013-09-14 07:55:00,56.0,47.8,30.07,SE,125,0.0,3.0,74,0.00,,---,0.00,VWS V14.01,2013-09-14 12:55:00,
2013-09-14 08:00:00,56.3,48.1,30.08,SE,146,0.0,3.0,74,0.00,,---,0.00,VWS V14.01,2013-09-14 13:00:00,
2013-09-14 08:05:00,56.7,48.2,30.08,SSE,148,1.0,3.0,73,0.00,,---,0.00,VWS V14.01,2013-09-14 13:05:00,
2013-09-14 08:10:00,57.0,48.4,30.08,SSE,165,2.0,4.0,73,0.00,,---,0.00,VWS V14.01,2013-09-14 13:10:00,
2013-09-14 08:15:00,57.3,48.7,30.07,SE,140,2.0,4.0,73,0.00,,---,0.00,VWS V14.01,2013-09-14 13:15:00,
2013-09-14 08:20:00,57.8,49.2,30.07,ESE,121,1.0,4.0,73,0.00,,---,0.00,VWS V14.01,2013-09-14 13:20:00,
2013-09-14 08:25:00,58.4,49.4,30.07,South,190,3.0,6.0,72,0.00,,---,0.00,VWS V14.01,2013-09-14 13:25:00,
2013-09-14 08:30:00,58.9,49.5,30.08,East,90,3.0,6.0,71,0.00,,---,0.00,VWS V14.01,2013-09-14 13:30:00,
2013-09-14 08:35:00,59.3,49.5,30.08,SSE,148,3.0,6.0,70,0.00,,---,0.00,VWS V14.01,2013-09-14 13:35:00,
2013-09-14 08:40:00,59.9,49.7,30.08,ESE,117,4.0,6.0,69,0.00,,---,0.00,VWS V14.01,2013-09-14 13:40:00,
2013-09-14 08:45:00,60.5,49.9,30.08,ESE,121,2.0,6.0,68,0.00,,---,0.00,VWS V14.01,2013-09-14 13:45:00,
2013-09-14 08:50:00,61.2,50.6,30.08,SE,144,2.0,6.0,68,0.00,,---,0.00,VWS V14.01,2013-09-14 13:50:00,
2013-09-14 08:55:00,61.5,50.5,30.08,SSE,164,1.0,6.0,67,0.00,,---,0.00,VWS V14.01,2013-09-14 13:55:00,
2013-09-14 09:00:00,61.8,50.3,30.08,SE,134,4.0,8.0,66,0.00,,---,0.00,VWS V14.01,2013-09-14 14:00:00,
2013-09-14 09:05:00,62.1,50.2,30.08,SSE,159,1.0,7.0,65,0.00,,---,0.00,VWS V14.01,2013-09-14 14:05:00,
2013-09-14 09:10:00,62.6,50.7,30.08,ESE,122,0.0,7.0,65,0.00,,---,0.00,VWS V14.01,2013-09-14 14:10:00,
2013-09-14 09:15:00,63.1,50.7,30.07,SE,140,0.0,7.0,64,0.00,,---,0.00,VWS V14.01,2013-09-14 14:15:00,
2013-09-14 09:20:00,63.5,51.1,30.07,South,171,3.0,7.0,64,0.00,,---,0.00,VWS V14.01,2013-09-14 14:20:00,
2013-09-14 09:25:00,63.9,51.1,30.07,ESE,119,0.0,7.0,63,0.00,,---,0.00,VWS V14.01,2013-09-14 14:25:00,
2013-09-14 09:30:00,64.3,51.5,30.08,SSE,160,1.0,7.0,63,0.00,,---,0.00,VWS V14.01,2013-09-14 14:30:00,
2013-09-14 09:35:00,64.8,51.5,30.08,SE,128,5.0,7.0,62,0.00,,---,0.00,VWS V14.01,2013-09-14 14:35:00,
2013-09-14 09:40:00,65.2,51.9,30.08,ESE,117,5.0,8.0,62,0.00,,---,0.00,VWS V14.01,2013-09-14 14:40:00,
2013-09-14 09:45:00,65.5,51.7,30.08,ESE,121,2.0,8.0,61,0.00,,---,0.00,VWS V14.01,2013-09-14 14:45:00,
2013-09-14 09:50:00,65.6,51.8,30.08,SE,138,2.0,8.0,61,0.00,,---,0.00,VWS V14.01,2013-09-14 14:50:00,
2013-09-14 09:55:00,66.0,51.7,30.08,East,96,2.0,8.0,60,0.00,,---,0.00,VWS V14.01,2013-09-14 14:55:00,
2013-09-14 10:00:00,66.1,51.8,30.08,SSE,147,3.0,8.0,60,0.00,,---,0.00,VWS V14.01,2013-09-14 15:00:00,
2013-09-14 10:05:00,66.3,52.0,30.08,SSE,150,5.0,6.0,60,0.00,,---,0.00,VWS V14.01,2013-09-14 15:05:00,
2013-09-14 10:10:00,66.4,51.7,30.08,West,266,2.0,6.0,59,0.00,,---,0.00,VWS V14.01,2013-09-14 15:10:00,
2013-09-14 10:15:00,66.9,52.1,30.08,SSE,154,0.0,8.0,59,0.00,,---,0.00,VWS V14.01,2013-09-14 15:15:00,
2013-09-14 10:20:00,67.4,52.6,30.08,SSE,152,3.0,9.0,59,0.00,,---,0.00,VWS V14.01,2013-09-14 15:20:00,
2013-09-14 10:25:00,67.8,53.0,30.08,WSW,239,1.0,9.0,59,0.00,,---,0.00,VWS V14.01,2013-09-14 15:25:00,
2013-09-14 10:30:00,67.8,53.0,30.08,SSE,148,0.0,9.0,59,0.00,,---,0.00,VWS V14.01,2013-09-14 15:30:00,
2013-09-14 10:35:00,67.9,53.1,30.08,South,171,2.0,5.0,59,0.00,,---,0.00,VWS V14.01,2013-09-14 15:35:00,
2013-09-14 10:40:00,68.3,53.0,30.08,SSE,151,3.0,9.0,58,0.00,,---,0.00,VWS V14.01,2013-09-14 15:40:00,
2013-09-14 10:45:00,68.6,53.2,30.07,SW,234,0.0,9.0,58,0.00,,---,0.00,VWS V14.01,2013-09-14 15:45:00,
2013-09-14 10:50:00,68.8,53.0,30.07,South,180,1.0,9.0,57,0.00,,---,0.00,VWS V14.01,2013-09-14 15:50:00,
2013-09-14 10:55:00,68.9,53.1,30.07,East,98,3.0,9.0,57,0.00,,---,0.00,VWS V14.01,2013-09-14 15:55:00,
2013-09-14 11:00:00,69.1,53.2,30.07,SSE,159,3.0,9.0,57,0.00,,---,0.00,VWS V14.01,2013-09-14 16:00:00,
2013-09-14 11:05:00,69.6,53.7,30.07,SW,236,3.0,5.0,57,0.00,,---,0.00,VWS V14.01,2013-09-14 16:05:00,
2013-09-14 11:10:00,69.9,54.0,30.07,SE,141,4.0,8.0,57,0.00,,---,0.00,VWS V14.01,2013-09-14 16:10:00,
2013-09-14 11:15:00,70.4,54.0,30.07,ESE,112,1.0,8.0,56,0.00,,---,0.00,VWS V14.01,2013-09-14 16:15:00,
2013-09-14 11:20:00,70.6,54.2,30.07,SSE,147,3.0,8.0,56,0.00,,---,0.00,VWS V14.01,2013-09-14 16:20:00,
2013-09-14 11:25:00,70.8,53.8,30.07,WSW,250,1.0,8.0,55,0.00,,---,0.00,VWS V14.01,2013-09-14 16:25:00,
2013-09-14 11:30:00,70.9,54.0,30.07,SSW,213,3.0,8.0,55,0.00,,---,0.00,VWS V14.01,2013-09-14 16:30:00,
2013-09-14 11:35:00,71.3,54.3,30.07,SSE,157,2.0,7.0,55,0.00,,---,0.00,VWS V14.01,2013-09-14 16:35:00,
2013-09-14 11:40:00,71.5,54.0,30.07,SW,235,1.0,7.0,54,0.00,,---,0.00,VWS V14.01,2013-09-14 16:40:00,
2013-09-14 11:45:00,71.6,54.1,30.07,WSW,248,1.0,7.0,54,0.00,,---,0.00,VWS V14.01,2013-09-14 16:45:00,
2013-09-14 11:50:00,71.8,54.3,30.07,WNW,293,0.0,7.0,54,0.00,,---,0.00,VWS V14.01,2013-09-14 16:50:00,
2013-09-14 11:55:00,72.1,54.6,30.07,SSW,211,0.0,7.0,54,0.00,,---,0.00,VWS V14.01,2013-09-14 16:55:00,
2013-09-14 12:00:00,72.3,54.7,30.07,WSW,238,3.0,7.0,54,0.00,,---,0.00,VWS V14.01,2013-09-14 17:00:00,
2013-09-14 12:05:00,72.7,55.1,30.07,WSW,254,0.0,6.0,54,0.00,,---,0.00,VWS V14.01,2013-09-14 17:05:00,
2013-09-14 12:10:00,73.0,54.9,30.07,WSW,246,1.0,6.0,53,0.00,,---,0.00,VWS V14.01,2013-09-14 17:10:00,
2013-09-14 12:15:00,73.2,55.1,30.06,West,278,2.0,6.0,53,0.00,,---,0.00,VWS V14.01,2013-09-14 17:15:00,
2013-09-14 12:20:00,73.2,54.5,30.06,East,100,2.0,6.0,52,0.00,,---,0.00,VWS V14.01,2013-09-14 17:20:00,
2013-09-14 12:25:00,73.3,54.6,30.06,SSW,192,0.0,6.0,52,0.00,,---,0.00,VWS V14.01,2013-09-14 17:25:00,
2013-09-14 12:30:00,73.5,54.8,30.05,SSW,200,0.0,7.0,52,0.00,,---,0.00,VWS V14.01,2013-09-14 17:30:00,
2013-09-14 12:35:00,73.5,54.3,30.05,SW,219,3.0,7.0,51,0.00,,---,0.00,VWS V14.01,2013-09-14 17:35:00,
2013-09-14 12:40:00,73.5,54.3,30.05,West,262,1.0,7.0,51,0.00,,---,0.00,VWS V14.01,2013-09-14 17:40:00,
2013-09-14 12:45:00,73.5,54.3,30.05,ESE,105,1.0,7.0,51,0.00,,---,0.00,VWS V14.01,2013-09-14 17:45:00,
2013-09-14 12:50:00,73.7,53.9,30.05,SE,138,1.0,9.0,50,0.00,,---,0.00,VWS V14.01,2013-09-14 17:50:00,
2013-09-14 12:55:00,73.9,54.1,30.05,SW,232,1.0,9.0,50,0.00,,---,0.00,VWS V14.01,2013-09-14 17:55:00,
2013-09-14 13:00:00,74.0,54.2,30.04,SE,142,1.0,9.0,50,0.00,,---,0.00,VWS V14.01,2013-09-14 18:00:00,
2013-09-14 13:05:00,74.2,54.4,30.04,WSW,253,0.0,6.0,50,0.00,,---,0.00,VWS V14.01,2013-09-14 18:05:00,
2013-09-14 13:10:00,74.6,54.2,30.04,SSW,192,3.0,7.0,49,0.00,,---,0.00,VWS V14.01,2013-09-14 18:10:00,
2013-09-14 13:15:00,74.4,54.0,30.03,SE,130,5.0,7.0,49,0.00,,---,0.00,VWS V14.01,2013-09-14 18:15:00,
2013-09-14 13:20:00,74.0,53.1,30.03,South,180,2.0,7.0,48,0.00,,---,0.00,VWS V14.01,2013-09-14 18:20:00,
2013-09-14 13:25:00,73.7,53.4,30.03,SSE,157,4.0,8.0,49,0.00,,---,0.00,VWS V14.01,2013-09-14 18:25:00,
2013-09-14 13:30:00,74.0,53.1,30.03,SE,146,3.0,8.0,48,0.00,,---,0.00,VWS V14.01,2013-09-14 18:30:00,
2013-09-14 13:35:00,74.6,54.2,30.03,South,169,0.0,5.0,49,0.00,,---,0.00,VWS V14.01,2013-09-14 18:35:00,
2013-09-14 13:40:00,75.1,54.1,30.03,WSW,252,3.0,7.0,48,0.00,,---,0.00,VWS V14.01,2013-09-14 18:40:00,
2013-09-14 13:45:00,74.9,53.9,30.02,SE,138,3.0,7.0,48,0.00,,---,0.00,VWS V14.01,2013-09-14 18:45:00,
2013-09-14 13:50:00,75.3,53.7,30.02,WNW,289,5.0,7.0,47,0.00,,---,0.00,VWS V14.01,2013-09-14 18:50:00,
2013-09-14 13:55:00,75.4,53.8,30.02,WSW,250,1.0,7.0,47,0.00,,---,0.00,VWS V14.01,2013-09-14 18:55:00,
2013-09-14 14:00:00,75.8,54.2,30.01,WSW,250,4.0,7.0,47,0.00,,---,0.00,VWS V14.01,2013-09-14 19:00:00,
2013-09-14 14:05:00,76.0,53.8,30.01,West,275,3.0,10.0,46,0.00,,---,0.00,VWS V14.01,2013-09-14 19:05:00,
2013-09-14 14:10:00,76.1,53.8,30.01,East,91,3.0,10.0,46,0.00,,---,0.00,VWS V14.01,2013-09-14 19:10:00,
2013-09-14 14:15:00,76.0,53.8,30.01,SSE,154,3.0,10.0,46,0.00,,---,0.00,VWS V14.01,2013-09-14 19:15:00,
2013-09-14 14:20:00,75.8,53.6,30.01,SSE,163,1.0,10.0,46,0.00,,---,0.00,VWS V14.01,2013-09-14 19:20:00,
2013-09-14 14:25:00,76.1,53.8,30.01,South,173,1.0,10.0,46,0.00,,---,0.00,VWS V14.01,2013-09-14 19:25:00,
2013-09-14 14:30:00,76.5,53.6,29.99,SSE,168,4.0,10.0,45,0.00,,---,0.00,VWS V14.01,2013-09-14 19:30:00,
2013-09-14 14:35:00,76.8,53.9,29.99,SSW,196,1.0,8.0,45,0.00,,---,0.00,VWS V14.01,2013-09-14 19:35:00,
2013-09-14 14:40:00,77.2,54.2,29.99,WSW,243,1.0,8.0,45,0.00,,---,0.00,VWS V14.01,2013-09-14 19:40:00,
2013-09-14 14:45:00,77.2,54.2,29.99,ESE,119,1.0,8.0,45,0.00,,---,0.00,VWS V14.01,2013-09-14 19:45:00,
2013-09-14 14:50:00,77.2,54.2,29.99,SW,228,2.0,8.0,45,0.00,,---,0.00,VWS V14.01,2013-09-14 19:50:00,
2013-09-14 14:55:00,76.8,53.3,29.99,SSE,157,3.0,10.0,44,0.00,,---,0.00,VWS V14.01,2013-09-14 19:55:00,
2013-09-14 15:00:00,76.5,53.0,29.99,ESE,112,2.0,10.0,44,0.00,,---,0.00,VWS V14.01,2013-09-14 20:00:00,
2013-09-14 15:05:00,76.1,52.6,29.99,SE,137,1.0,6.0,44,0.00,,---,0.00,VWS V14.01,2013-09-14 20:05:00,
2013-09-14 15:10:00,76.5,53.0,29.99,South,182,1.0,6.0,44,0.00,,---,0.00,VWS V14.01,2013-09-14 20:10:00,
2013-09-14 15:15:00,77.0,53.4,29.99,West,281,1.0,7.0,44,0.00,,---,0.00,VWS V14.01,2013-09-14 20:15:00,
2013-09-14 15:20:00,77.2,53.0,29.98,East,82,3.0,10.0,43,0.00,,---,0.00,VWS V14.01,2013-09-14 20:20:00,
2013-09-14 15:25:00,77.2,53.0,29.98,SSE,165,2.0,10.0,43,0.00,,---,0.00,VWS V14.01,2013-09-14 20:25:00,
2013-09-14 15:30:00,77.4,53.2,29.98,SSE,156,6.0,10.0,43,0.00,,---,0.00,VWS V14.01,2013-09-14 20:30:00,
2013-09-14 15:35:00,77.4,52.5,29.98,WSW,244,2.0,5.0,42,0.00,,---,0.00,VWS V14.01,2013-09-14 20:35:00,
2013-09-14 15:40:00,77.4,53.2,29.98,ESE,116,2.0,5.0,43,0.00,,---,0.00,VWS V14.01,2013-09-14 20:40:00,
2013-09-14 15:44:00,77.4,52.5,29.98,SSW,194,1.0,5.0,42,0.00,,---,0.00,VWS V14.01,2013-09-14 20:44:00,
2013-09-14 15:49:00,77.2,53.0,29.97,SSE,161,3.0,5.0,43,0.00,,---,0.00,VWS V14.01,2013-09-14 20:49:00,
2013-09-14 15:55:00,77.2,53.0,29.97,East,88,5.0,7.0,43,0.00,,---,0.00,VWS V14.01,2013-09-14 20:55:00,
2013-09-14 15:59:00,77.4,52.5,29.97,WSW,248,3.0,8.0,42,0.00,,---,0.00,VWS V14.01,2013-09-14 20:59:00,
2013-09-14 16:00:00,76.3,52.2,29.99,SE,140,4.0,12.0,43,0.00,,---,0.00,VWS V14.01,2013-09-14 21:00:00,
2013-09-14 16:04:00,77.6,53.4,29.97,East,100,3.0,5.0,43,0.00,,---,0.00,VWS V14.01,2013-09-14 21:04:00,
2013-09-14 16:09:00,77.7,53.5,29.97,ESE,116,2.0,5.0,43,0.00,,---,0.00,VWS V14.01,2013-09-14 21:09:00,
2013-09-14 16:14:00,77.9,53.6,29.97,ESE,117,3.0,8.0,43,0.00,,---,0.00,VWS V14.01,2013-09-14 21:14:00,
2013-09-14 16:19:00,78.1,53.2,29.97,West,261,3.0,8.0,42,0.00,,---,0.00,VWS V14.01,2013-09-14 21:19:00,
2013-09-14 16:24:00,78.1,53.2,29.97,West,263,4.0,8.0,42,0.00,,---,0.00,VWS V14.01,2013-09-14 21:24:00,
2013-09-14 16:29:00,77.9,52.3,29.97,South,181,0.0,8.0,41,0.00,,---,0.00,VWS V14.01,2013-09-14 21:29:00,
2013-09-14 16:30:00,77.4,53.2,29.98,SW,221,3.0,10.0,43,0.00,,---,0.00,VWS V14.01,2013-09-14 21:30:00,
2013-09-14 16:34:00,77.9,52.3,29.96,SE,138,1.0,8.0,41,0.00,,---,0.00,VWS V14.01,2013-09-14 21:34:00,
2013-09-14 16:39:00,77.7,52.2,29.96,SSE,158,1.0,8.0,41,0.00,,---,0.00,VWS V14.01,2013-09-14 21:39:00,
2013-09-14 16:44:00,77.6,52.1,29.96,WSW,239,0.0,8.0,41,0.00,,---,0.00,VWS V14.01,2013-09-14 21:44:00,
2013-09-14 16:49:00,77.6,52.1,29.95,SW,236,4.0,8.0,41,0.00,,---,0.00,VWS V14.01,2013-09-14 21:49:00,
2013-09-14 16:54:00,77.4,51.9,29.95,SSE,150,0.0,8.0,41,0.00,,---,0.00,VWS V14.01,2013-09-14 21:54:00,
2013-09-14 16:59:00,77.4,51.9,29.95,SSW,200,2.0,8.0,41,0.00,,---,0.00,VWS V14.01,2013-09-14 21:59:00,
2013-09-14 17:00:00,77.4,53.2,29.97,South,182,0.0,8.0,43,0.00,,---,0.00,VWS V14.01,2013-09-14 22:00:00,
2013-09-14 17:04:00,77.4,51.9,29.95,West,277,4.0,4.0,41,0.00,,---,0.00,VWS V14.01,2013-09-14 22:04:00,
2013-09-14 17:09:00,77.4,51.9,29.95,WNW,282,2.0,5.0,41,0.00,,---,0.00,VWS V14.01,2013-09-14 22:09:00,
2013-09-14 17:14:00,77.6,52.1,29.95,SW,219,3.0,7.0,41,0.00,,---,0.00,VWS V14.01,2013-09-14 22:14:00,
2013-09-14 17:19:00,77.4,51.9,29.94,South,182,0.0,7.0,41,0.00,,---,0.00,VWS V14.01,2013-09-14 22:19:00,
2013-09-14 17:24:00,77.2,51.7,29.94,SSW,200,1.0,7.0,41,0.00,,---,0.00,VWS V14.01,2013-09-14 22:24:00,
2013-09-14 17:29:00,76.8,51.3,29.94,SW,230,1.0,7.0,41,0.00,,---,0.00,VWS V14.01,2013-09-14 22:29:00,
2013-09-14 17:30:00,77.9,52.3,29.96,ESE,118,3.0,8.0,41,0.00,,---,0.00,VWS V14.01,2013-09-14 22:30:00,
2013-09-14 17:34:00,76.7,51.2,29.94,West,267,1.0,5.0,41,0.00,,---,0.00,VWS V14.01,2013-09-14 22:34:00,
2013-09-14 17:39:00,76.5,51.1,29.94,SSE,161,1.0,5.0,41,0.00,,---,0.00,VWS V14.01,2013-09-14 22:39:00,
2013-09-14 17:44:00,76.3,50.9,29.94,SW,229,0.0,5.0,41,0.00,,---,0.00,VWS V14.01,2013-09-14 22:44:00,
2013-09-14 17:49:00,76.0,51.3,29.94,SW,236,2.0,5.0,42,0.00,,---,0.00,VWS V14.01,2013-09-14 22:49:00,
2013-09-14 17:54:00,75.8,51.1,29.94,SW,220,1.0,5.0,42,0.00,,---,0.00,VWS V14.01,2013-09-14 22:54:00,
2013-09-14 17:59:00,75.4,50.7,29.94,SW,231,1.0,5.0,42,0.00,,---,0.00,VWS V14.01,2013-09-14 22:59:00,
2013-09-14 18:00:00,77.4,51.9,29.95,ESE,121,2.0,8.0,41,0.00,,---,0.00,VWS V14.01,2013-09-14 23:00:00,
2013-09-14 18:04:00,75.3,50.7,29.94,South,187,0.0,2.0,42,0.00,,---,0.00,VWS V14.01,2013-09-14 23:04:00,
2013-09-14 18:09:00,75.1,51.1,29.94,SSW,213,1.0,3.0,43,0.00,,---,0.00,VWS V14.01,2013-09-14 23:09:00,
2013-09-14 18:14:00,74.9,50.9,29.94,South,190,0.0,3.0,43,0.00,,---,0.00,VWS V14.01,2013-09-14 23:14:00,
2013-09-14 18:19:00,74.6,50.7,29.94,South,171,1.0,3.0,43,0.00,,---,0.00,VWS V14.01,2013-09-14 23:19:00,
2013-09-14 18:24:00,74.4,51.1,29.94,South,173,1.0,3.0,44,0.00,,---,0.00,VWS V14.01,2013-09-14 23:24:00,
2013-09-14 18:29:00,74.2,50.9,29.94,SE,132,3.0,4.0,44,0.00,,---,0.00,VWS V14.01,2013-09-14 23:29:00,
2013-09-14 18:30:00,76.8,51.3,29.94,WNW,285,2.0,7.0,41,0.00,,---,0.00,VWS V14.01,2013-09-14 23:30:00,
2013-09-14 18:34:00,74.0,50.7,29.94,SSE,161,2.0,3.0,44,0.00,,---,0.00,VWS V14.01,2013-09-14 23:34:00,
2013-09-14 18:39:00,73.9,51.2,29.94,SSE,150,2.0,3.0,45,0.00,,---,0.00,VWS V14.01,2013-09-14 23:39:00,
2013-09-14 18:44:00,73.5,50.9,29.94,SSE,161,1.0,3.0,45,0.00,,---,0.00,VWS V14.01,2013-09-14 23:44:00,
2013-09-14 18:49:00,73.3,50.7,29.94,SSE,163,1.0,3.0,45,0.00,,---,0.00,VWS V14.01,2013-09-14 23:49:00,
2013-09-14 18:54:00,73.2,51.2,29.94,SSE,161,1.0,3.0,46,0.00,,---,0.00,VWS V14.01,2013-09-14 23:54:00,
2013-09-14 18:59:00,73.0,51.0,29.94,SSE,147,0.0,4.0,46,0.00,,---,0.00,VWS V14.01,2013-09-14 23:59:00,
2013-09-14 19:00:00,75.4,50.7,29.94,South,169,2.0,5.0,42,0.00,,---,0.00,VWS V14.01,2013-09-15 00:00:00,
2013-09-14 19:04:00,72.8,50.8,29.94,SSE,147,0.0,1.0,46,0.00,,---,0.00,VWS V14.01,2013-09-15 00:04:00,
2013-09-14 19:09:00,72.5,51.2,29.94,SSE,163,0.0,3.0,47,0.00,,---,0.00,VWS V14.01,2013-09-15 00:09:00,
2013-09-14 19:14:00,72.3,51.0,29.94,SSE,148,0.0,3.0,47,0.00,,---,0.00,VWS V14.01,2013-09-15 00:14:00,
2013-09-14 19:19:00,72.1,50.8,29.94,SSE,167,2.0,3.0,47,0.00,,---,0.00,VWS V14.01,2013-09-15 00:19:00,
2013-09-14 19:24:00,72.0,50.7,29.94,SSE,163,0.0,3.0,47,0.00,,---,0.00,VWS V14.01,2013-09-15 00:24:00,
2013-09-14 19:29:00,71.8,50.5,29.94,SSE,163,0.0,3.0,47,0.00,,---,0.00,VWS V14.01,2013-09-15 00:29:00,
2013-09-14 19:30:00,74.0,50.7,29.94,South,171,0.0,4.0,44,0.00,,---,0.00,VWS V14.01,2013-09-15 00:30:00,
2013-09-14 19:34:00,71.6,50.9,29.93,SSE,163,0.0,2.0,48,0.00,,---,0.00,VWS V14.01,2013-09-15 00:34:00,
2013-09-14 19:39:00,71.5,50.8,29.93,SSE,163,2.0,3.0,48,0.00,,---,0.00,VWS V14.01,2013-09-15 00:39:00,
2013-09-14 19:44:00,71.3,50.6,29.93,SSE,163,0.0,3.0,48,0.00,,---,0.00,VWS V14.01,2013-09-15 00:44:00,
2013-09-14 19:49:00,71.1,51.0,29.93,SSE,160,1.0,3.0,49,0.00,,---,0.00,VWS V14.01,2013-09-15 00:49:00,
2013-09-14 19:54:00,70.8,50.7,29.93,SSE,157,0.0,3.0,49,0.00,,---,0.00,VWS V14.01,2013-09-15 00:54:00,
2013-09-14 19:59:00,70.6,50.5,29.93,SSE,150,0.0,4.0,49,0.00,,---,0.00,VWS V14.01,2013-09-15 00:59:00,
2013-09-14 20:00:00,72.8,50.8,29.94,SSE,147,0.0,4.0,46,0.00,,---,0.00,VWS V14.01,2013-09-15 01:00:00,
2013-09-14 20:04:00,70.4,50.9,29.93,SSE,161,0.0,3.0,50,0.00,,---,0.00,VWS V14.01,2013-09-15 01:04:00,
2013-09-14 20:09:00,70.3,50.8,29.93,SSE,157,3.0,3.0,50,0.00,,---,0.00,VWS V14.01,2013-09-15 01:09:00,
2013-09-14 20:14:00,70.1,50.6,29.93,SSE,150,0.0,3.0,50,0.00,,---,0.00,VWS V14.01,2013-09-15 01:14:00,
2013-09-14 20:19:00,69.9,51.0,29.93,SSE,147,0.0,3.0,51,0.00,,---,0.00,VWS V14.01,2013-09-15 01:19:00,
2013-09-14 20:24:00,69.6,50.7,29.93,SSE,148,0.0,3.0,51,0.00,,---,0.00,VWS V14.01,2013-09-15 01:24:00,
2013-09-14 20:29:00,69.4,50.5,29.93,SSE,148,0.0,3.0,51,0.00,,---,0.00,VWS V14.01,2013-09-15 01:29:00,
2013-09-14 20:30:00,71.8,51.1,29.93,SSE,163,0.0,3.0,48,0.00,,---,0.00,VWS V14.01,2013-09-15 01:30:00,
2013-09-14 20:34:00,69.3,50.9,29.93,SE,145,0.0,2.0,52,0.00,,---,0.00,VWS V14.01,2013-09-15 01:34:00,
2013-09-14 20:39:00,69.1,50.8,29.93,South,177,1.0,3.0,52,0.00,,---,0.00,VWS V14.01,2013-09-15 01:39:00,
2013-09-14 20:44:00,69.1,50.8,29.93,SSE,164,0.0,3.0,52,0.00,,---,0.00,VWS V14.01,2013-09-15 01:44:00,
2013-09-14 20:49:00,68.9,51.1,29.93,South,178,1.0,4.0,53,0.00,,---,0.00,VWS V14.01,2013-09-15 01:49:00,
2013-09-14 20:54:00,68.9,51.1,29.93,SE,127,2.0,4.0,53,0.00,,---,0.00,VWS V14.01,2013-09-15 01:54:00,
2013-09-14 20:59:00,68.9,51.1,29.93,SSE,160,1.0,4.0,53,0.00,,---,0.00,VWS V14.01,2013-09-15 01:59:00,
2013-09-14 21:00:00,70.6,50.5,29.93,South,172,3.0,4.0,49,0.00,,---,0.00,VWS V14.01,2013-09-15 02:00:00,
2013-09-14 21:04:00,68.9,51.1,29.93,SE,143,1.0,3.0,53,0.00,,---,0.00,VWS V14.01,2013-09-15 02:04:00,
2013-09-14 21:09:00,68.8,51.5,29.93,SE,136,0.0,3.0,54,0.00,,---,0.00,VWS V14.01,2013-09-15 02:09:00,
2013-09-14 21:14:00,68.8,51.5,29.93,SSE,151,0.0,3.0,54,0.00,,---,0.00,VWS V14.01,2013-09-15 02:14:00,
2013-09-14 21:19:00,68.6,51.3,29.93,SE,142,0.0,3.0,54,0.00,,---,0.00,VWS V14.01,2013-09-15 02:19:00,
2013-09-14 21:24:00,68.6,51.3,29.93,SSE,149,0.0,3.0,54,0.00,,---,0.00,VWS V14.01,2013-09-15 02:24:00,
2013-09-14 21:29:00,68.6,51.3,29.93,SSE,152,2.0,4.0,54,0.00,,---,0.00,VWS V14.01,2013-09-15 02:29:00,
2013-09-14 21:30:00,69.4,51.0,29.93,SE,146,0.0,3.0,52,0.00,,---,0.00,VWS V14.01,2013-09-15 02:30:00,
2013-09-14 21:34:00,68.4,51.1,29.92,SSE,153,0.0,2.0,54,0.00,,---,0.00,VWS V14.01,2013-09-15 02:34:00,
2013-09-14 21:39:00,68.4,51.1,29.92,SE,144,1.0,3.0,54,0.00,,---,0.00,VWS V14.01,2013-09-15 02:39:00,
2013-09-14 21:44:00,68.3,51.5,29.92,SSE,148,0.0,3.0,55,0.00,,---,0.00,VWS V14.01,2013-09-15 02:44:00,
2013-09-14 21:49:00,68.3,51.5,29.92,SE,146,1.0,3.0,55,0.00,,---,0.00,VWS V14.01,2013-09-15 02:49:00,
2013-09-14 21:54:00,68.1,51.3,29.92,SSE,150,2.0,3.0,55,0.00,,---,0.00,VWS V14.01,2013-09-15 02:54:00,
2013-09-14 21:59:00,68.1,51.3,29.92,SSE,152,0.0,3.0,55,0.00,,---,0.00,VWS V14.01,2013-09-15 02:59:00,
2013-09-14 22:00:00,68.9,51.1,29.93,SSE,161,1.0,4.0,53,0.00,,---,0.00,VWS V14.01,2013-09-15 03:00:00,
2013-09-14 22:04:00,67.9,51.6,29.92,SSE,165,3.0,3.0,56,0.00,,---,0.00,VWS V14.01,2013-09-15 03:04:00,
2013-09-14 22:09:00,67.9,51.6,29.92,South,175,0.0,3.0,56,0.00,,---,0.00,VWS V14.01,2013-09-15 03:09:00,
2013-09-14 22:14:00,67.9,51.6,29.92,South,169,1.0,4.0,56,0.00,,---,0.00,VWS V14.01,2013-09-15 03:14:00,
2013-09-14 22:19:00,67.8,51.5,29.92,SSE,157,2.0,4.0,56,0.00,,---,0.00,VWS V14.01,2013-09-15 03:19:00,
2013-09-14 22:24:00,67.8,51.5,29.92,SSW,200,0.0,4.0,56,0.00,,---,0.00,VWS V14.01,2013-09-15 03:24:00,
2013-09-14 22:29:00,67.6,51.4,29.92,South,170,2.0,4.0,56,0.00,,---,0.00,VWS V14.01,2013-09-15 03:29:00,
2013-09-14 22:30:00,68.6,51.3,29.92,SSE,154,2.0,4.0,54,0.00,,---,0.00,VWS V14.01,2013-09-15 03:30:00,
2013-09-14 22:33:00,67.6,51.8,29.92,SSE,165,0.0,1.0,57,0.00,,---,0.00,VWS V14.01,2013-09-15 03:33:00,
2013-09-14 22:38:00,67.4,51.7,29.92,South,188,0.0,3.0,57,0.00,,---,0.00,VWS V14.01,2013-09-15 03:38:00,
2013-09-14 22:43:00,67.3,51.6,29.92,SSE,167,0.0,3.0,57,0.00,,---,0.00,VWS V14.01,2013-09-15 03:43:00,
2013-09-14 22:48:00,67.1,51.4,29.93,South,185,1.0,3.0,57,0.00,,---,0.00,VWS V14.01,2013-09-15 03:48:00,
2013-09-14 22:53:00,67.1,51.4,29.93,SSE,157,0.0,3.0,57,0.00,,---,0.00,VWS V14.01,2013-09-15 03:53:00,
2013-09-14 22:58:00,66.9,51.2,29.93,South,169,1.0,3.0,57,0.00,,---,0.00,VWS V14.01,2013-09-15 03:58:00,
2013-09-14 23:00:00,68.1,51.3,29.92,SSE,161,0.0,5.0,55,0.00,,---,0.00,VWS V14.01,2013-09-15 04:00:00,
2013-09-14 23:01:00,66.8,51.1,29.93,South,172,0.0,3.0,57,0.00,,---,0.00,VWS V14.01,2013-09-15 04:01:00,
2013-09-14 23:02:00,66.8,51.6,29.93,South,172,0.0,1.0,58,0.00,,---,0.00,VWS V14.01,2013-09-15 04:02:00,
2013-09-14 23:07:00,66.6,51.4,29.93,South,172,0.0,2.0,58,0.00,,---,0.00,VWS V14.01,2013-09-15 04:07:00,
2013-09-14 23:12:00,66.4,51.2,29.93,South,172,1.0,2.0,58,0.00,,---,0.00,VWS V14.01,2013-09-15 04:12:00,
2013-09-14 23:17:00,66.3,51.1,29.93,South,172,2.0,2.0,58,0.00,,---,0.00,VWS V14.01,2013-09-15 04:17:00,
2013-09-14 23:22:00,66.1,50.9,29.93,South,172,0.0,2.0,58,0.00,,---,0.00,VWS V14.01,2013-09-15 04:22:00,
2013-09-14 23:27:00,66.0,51.3,29.93,South,172,0.0,2.0,59,0.00,,---,0.00,VWS V14.01,2013-09-15 04:27:00,
2013-09-14 23:30:00,67.6,51.4,29.92,SSE,166,1.0,4.0,56,0.00,,---,0.00,VWS V14.01,2013-09-15 04:30:00,
2013-09-14 23:32:00,65.8,51.1,29.93,South,172,1.0,1.0,59,0.00,,---,0.00,VWS V14.01,2013-09-15 04:32:00,
2013-09-14 23:37:00,65.8,51.1,29.93,South,172,0.0,2.0,59,0.00,,---,0.00,VWS V14.01,2013-09-15 04:37:00,
2013-09-14 23:42:00,65.8,51.1,29.93,South,172,0.0,2.0,59,0.00,,---,0.00,VWS V14.01,2013-09-15 04:42:00,
2013-09-14 23:47:00,65.8,51.1,29.93,SE,140,4.0,4.0,59,0.00,,---,0.00,VWS V14.01,2013-09-15 04:47:00,
2013-09-14 23:52:00,65.8,51.1,29.93,SSE,168,1.0,4.0,59,0.00,,---,0.00,VWS V14.01,2013-09-15 04:52:00,
2013-09-14 23:57:00,65.8,51.1,29.93,South,171,0.0,4.0,59,0.00,,---,0.00,VWS V14.01,2013-09-15 04:57:00,